Regional Weather Roundup
Issued by NWS

Home | Current Version | Previous Version | Graphics & Text | Print | Product List | Glossary On
Versions: 1 2 3 4 5 6 7 8 9 10 11 12 13 14 15 16 17 18 19 20 21 22 23 24 25 26 27 28 29 30 31 32 33 34 35 36 37 38 39 40 41 42 43 44 45 46 47 48 49 50
000
ASUS43 KBIS 301810
RWRND

NORTH DAKOTA REGIONAL WEATHER ROUNDUP
NATIONAL WEATHER SERVICE BISMARCK ND
100 PM CDT TUE JUN 30 2015

NOTE: "FAIR" INDICATES FEW OR NO CLOUDS BELOW 12,000 FEET WITH NO
SIGNIFICANT WEATHER AND/OR OBSTRUCTIONS TO VISIBILITY.


NDZ001>003-009>011-017-301900-
NORTHWEST NORTH DAKOTA

CITY           SKY/WX    TMP DP  RH WIND       PRES   REMARKS
WILLISTON      CLOUDY    79  53  40 E14       29.91S
6HR MIN TEMP:  65; 6HR MAX TEMP:  83; 6HR PCP:  0.01;

MINOT          CLOUDY    69  63  81 CALM      29.91F
MINOT AFB      CLOUDY    71  71  99 S3        29.91S
$$

NDZ018>021-031>035-040>046-301900-
SOUTHWEST NORTH DAKOTA

CITY           SKY/WX    TMP DP  RH WIND       PRES   REMARKS
BISMARCK       CLOUDY    70  65  84 S7        29.93F
6HR MIN TEMP:  66; 6HR MAX TEMP:  70; 6HR PCP: TRACE;

DICKINSON      CLOUDY    71  65  81 E9        29.92F
GARRISON         N/A     70  66  87 SE3       29.91F
6HR MIN TEMP:  67; 6HR MAX TEMP:  70; 6HR PCP:  0.05;

HETTINGER ARPT CLOUDY    71  62  73 SE12      29.94S
$$

NDZ004>008-012>016-024-026-027-054-301900-
NORTHEAST NORTH DAKOTA

CITY           SKY/WX    TMP DP  RH WIND       PRES   REMARKS
GRAND FORKS    CLOUDY    73  57  57 SE3       29.94F
GRND FRKS AFB  PTSUNNY   72  60  65 SE5       29.95S
DEVILS LAKE    CLOUDY    68  57  68 SE8       29.93F
$$

NDZ022-023-025-028>030-036>039-047>053-301900-
SOUTHEAST NORTH DAKOTA

CITY           SKY/WX    TMP DP  RH WIND       PRES   REMARKS
FARGO          PTSUNNY   74  57  55 E5        29.94S
6HR MIN TEMP:  58; 6HR MAX TEMP:  74;

JAMESTOWN      CLOUDY    70  60  70 SE7       29.94F
$$



USA.gov is the U.S. government's official web portal to all federal, state and local government web resources and services.